THOR AGENA D R/B, 2255

Orbit data source: Space-Track

THOR AGENA D R/B, 2255 is space debris in LEO originally from a launch on Fri, 24 Jun 1966 UTC launched from the Air Force Western Test Range (AFWTR). Debris objects in space refer to the collection of defunct objects orbiting the Earth. Examples of debris include non-operational satellites, rocket bodies, and fragments generated from explosions, collisions, or faulty payload assembly.

Loading next visibility...
Identifier
2255, 1966-056B
Orbit
LEO
Country
Flag of USUS
Related business
Manufacturer
LMSC
Mission
Spacecraft
Bus & Motor
AGENA D, Unknown motor
Mass
600 kg wet, 600 kg dry
Launch date (UTC)
1966-06-24 (60 years ago)
Launch vehicle
Unknown
Launch site
Air Force Western Test Range (AFWTR)
Object type
Payload
Rocket body
Debris
Shape & HBR
CYL, 3.1 m
Radar Cross Section
Large (>1 m²)

Expand to show TLE details & history
Last TLE update: 14 hours ago

TLE from 14 hours ago
0 THOR AGENA D R/B
1 02255U 66056B   26235.80176660 -.00000001  00000-0 -27817-2 0  9999
2 02255  86.9831 173.0936 0047476  45.1312 315.3337  7.94756039745690
Epoch: 2026-08-23T19:14Z
TLE epoch observation values (Epoch: 2026-08-23T19:14:32.634Z)
Latitude
-0°
Longitude
-87.63498°
Altitude
4,194.903 km
Speed
6.151 km/s
True Right ascension
11h 32m 22s
True Declination
0° 00' 00"
Sunlit
Object was in daylight at epoch
Visualization orbit readout
Latitude
Unknown
Longitude
Unknown
Altitude
Unknown
Speed
Unknown
Apparent Right ascension
Unknown
Apparent Declination
Unknown
Sunlit
N/A
Visualization observer readout
Local Sidereal Time
00:23:35
Azimuth
Unknown
Elevation
Unknown
Doppler factor
Unknown
Orbital elements
Apogee altitude
4,276.833 km
Perigee altitude
4,176.14 km
Semi-major axis
10,604.623 km
Eccentricity
0.00475
Inclination
86.9831°
RAAN
173.0936°
Arg. of periapsis
45.1312°
True anomaly
314.94964°
Mean anomaly
315.3337°
Eccentric anomaly
315.14183°
Mean motion
1.98747 °/min
Orbital period
181.13 mins
BSTAR
-0.0027817
Loading maneuver chart data...
Computing Atmospheric mass density...

Documentation

Showing up to 5 results
|